QPF
0.05 0.05 0.06 0.06 0.07 0.08 0.10 0.10 0.12 0.17 0.21 0.16 0.15 0.21 0.22 0.23 0.22 0.27 0.31 0.28 0.25 0.30 0.30 0.26 0.18 0.12 0.08 0.05 0.03 0.02 0.01 0.01 0.00 0.00 0.00 0.00 0.00 0.00 0.01 0.01 0.00 0.00 0.00
0.05 0.04 0.04 0.04 0.04 0.05 0.06 0.07 0.08 0.12 0.14 0.13 0.13 0.17 0.19 0.19 0.19 0.21 0.27 0.33 0.38 0.40 0.34 0.28 0.22 0.15 0.11 0.08 0.06 0.04 0.02 0.01 0.01 0.00 0.00 0.00 0.00 0.00 0.00 0.00 0.00 0.00 0.00
0.03 0.02 0.02 0.02 0.03 0.04 0.04 0.04 0.04 0.07 0.06 0.07 0.09 0.11 0.10 0.10 0.11 0.14 0.22 0.28 0.28 0.32 0.40 0.39 0.28 0.18 0.14 0.12 0.10 0.08 0.05 0.03 0.02 0.01 0.01 0.00 0.00 0.00 0.00 0.00 0.00 0.00 0.00
0.02 0.01 0.01 0.01 0.03 0.03 0.03 0.04 0.04 0.05 0.05 0.05 0.06 0.07 0.07 0.08 0.08 0.09 0.13 0.18 0.23 0.28 0.39 0.43 0.32 0.21 0.17 0.16 0.15 0.14 0.11 0.08 0.05 0.02 0.01 0.01 0.00 0.00 0.00 0.00 0.00 0.00 0.00
0.02 0.02 0.01 0.01 0.01 0.01 0.01 0.02 0.03 0.04 0.04 0.05 0.06 0.06 0.06 0.06 0.06 0.05 0.05 0.07 0.11 0.18 0.22 0.24 0.25 0.24 0.24 0.23 0.21 0.19 0.16 0.12 0.08 0.05 0.03 0.01 0.01 0.00 0.00 0.00 0.00 0.00 0.00
0.03 0.02 0.01 0.01 0.00 0.00 0.00 0.01 0.01 0.01 0.01 0.02 0.02 0.03 0.02 0.02 0.02 0.02 0.03 0.04 0.06 0.08 0.12 0.15 0.15 0.15 0.17 0.19 0.19 0.18 0.20 0.18 0.13 0.09 0.07 0.05 0.02 0.01 0.00 0.00 0.00 0.00 0.00
0.05 0.02 0.01 0.00 0.00 0.00 0.00 0.00 0.00 0.00 0.00 0.01 0.01 0.01 0.01 0.01 0.01 0.01 0.03 0.04 0.03 0.05 0.08 0.10 0.11 0.11 0.11 0.14 0.18 0.19 0.22 0.21 0.18 0.14 0.11 0.09 0.07 0.04 0.01 0.01 0.01 0.01 0.02
0.03 0.01 0.00 0.00 0.00 0.00 0.00 0.00 0.00 0.00 0.00 0.00 0.01 0.01 0.01 0.01 0.01 0.02 0.04 0.05 0.05 0.06 0.06 0.07 0.09 0.11 0.14 0.19 0.23 0.22 0.22 0.22 0.21 0.19 0.15 0.11 0.08 0.06 0.04 0.02 0.01 0.02 0.02
0.01 0.01 0.00 0.00 0.00 0.00 0.00 0.00 0.00 0.00 0.00 0.00 0.00 0.01 0.01 0.01 0.01 0.01 0.02 0.03 0.04 0.04 0.05 0.08 0.08 0.11 0.17 0.23 0.24 0.22 0.20 0.20 0.21 0.21 0.17 0.12 0.08 0.05 0.04 0.03 0.02 0.01 0.02
0.01 0.00 0.00 0.00 0.00 0.00 0.00 0.00 0.00 0.00 0.00 0.00 0.00 0.01 0.01 0.01 0.02 0.01 0.01 0.02 0.03 0.03 0.06 0.09 0.10 0.11 0.14 0.20 0.19 0.16 0.13 0.14 0.16 0.17 0.16 0.13 0.09 0.07 0.05 0.03 0.04 0.03 0.02
0.02 0.01 0.00 0.00 0.00 0.00 0.00 0.00 0.00 0.00 0.00 0.00 0.00 0.00 0.00 0.01 0.02 0.02 0.01 0.01 0.01 0.02 0.05 0.07 0.10 0.11 0.09 0.11 0.14 0.14 0.13 0.14 0.13 0.12 0.12 0.12 0.10 0.07 0.05 0.04 0.05 0.06 0.05
0.03 0.02 0.01 0.01 0.01 0.00 0.00 0.00 0.00 0.00 0.00 0.00 0.00 0.00 0.00 0.00 0.01 0.02 0.02 0.01 0.01 0.01 0.02 0.04 0.07 0.10 0.10 0.12 0.12 0.15 0.16 0.13 0.12 0.10 0.08 0.08 0.07 0.06 0.04 0.04 0.05 0.08 0.10
0.06 0.05 0.04 0.04 0.02 0.01 0.00 0.00 0.00 0.00 0.00 0.00 0.00 0.00 0.00 0.01 0.01 0.01 0.01 0.01 0.01 0.01 0.03 0.04 0.05 0.07 0.08 0.09 0.10 0.13 0.14 0.12 0.09 0.06 0.05 0.04 0.03 0.03 0.03 0.02 0.04 0.06 0.09
0.09 0.09 0.07 0.06 0.04 0.02 0.01 0.00 0.00 0.00 0.00 0.00 0.00 0.00 0.00 0.00 0.01 0.01 0.01 0.02 0.01 0.01 0.02 0.03 0.05 0.07 0.08 0.10 0.10 0.11 0.09 0.09 0.07 0.04 0.02 0.02 0.01 0.02 0.02 0.02 0.02 0.03 0.04
0.11 0.11 0.10 0.08 0.05 0.03 0.01 0.01 0.00 0.00 0.00 0.00 0.00 0.00 0.00 0.00 0.01 0.01 0.01 0.02 0.02 0.01 0.02 0.04 0.06 0.07 0.10 0.13 0.12 0.09 0.07 0.06 0.06 0.04 0.02 0.01 0.01 0.01 0.01 0.02 0.02 0.03 0.03
0.07 0.08 0.08 0.06 0.05 0.03 0.02 0.01 0.01 0.00 0.00 0.00 0.00 0.00 0.00 0.00 0.01 0.01 0.01 0.02 0.04 0.03 0.03 0.05 0.06 0.09 0.12 0.11 0.11 0.06 0.05 0.04 0.04 0.03 0.01 0.01 0.00 0.00 0.00 0.00 0.01 0.02 0.04
0.02 0.02 0.03 0.03 0.03 0.03 0.03 0.02 0.01 0.01 0.00 0.00 0.00 0.00 0.00 0.00 0.00 0.01 0.01 0.02 0.04 0.06 0.04 0.05 0.09 0.12 0.13 0.09 0.08 0.05 0.04 0.03 0.03 0.02 0.01 0.01 0.00 0.00 0.00 0.00 0.00 0.01 0.02
0.01 0.01 0.02 0.02 0.02 0.02 0.02 0.02 0.02 0.01 0.01 0.00 0.00 0.00 0.00 0.00 0.00 0.01 0.01 0.03 0.05 0.06 0.05 0.07 0.10 0.12 0.12 0.10 0.09 0.08 0.05 0.03 0.02 0.01 0.01 0.00 0.00 0.00 0.00 0.00 0.00 0.00 0.00
0.00 0.00 0.01 0.01 0.02 0.02 0.02 0.02 0.02 0.02 0.01 0.01 0.01 0.01 0.00 0.00 0.00 0.00 0.01 0.02 0.04 0.06 0.07 0.07 0.08 0.12 0.12 0.10 0.10 0.08 0.05 0.03 0.01 0.01 0.01 0.01 0.00 0.00 0.00 0.00 0.00 0.00 0.00
0.00 0.00 0.00 0.00 0.01 0.01 0.01 0.02 0.03 0.02 0.02 0.02 0.01 0.01 0.00 0.00 0.00 0.00 0.00 0.01 0.03 0.05 0.07 0.07 0.08 0.11 0.13 0.12 0.10 0.07 0.06 0.04 0.02 0.02 0.01 0.01 0.01 0.01 0.00 0.00 0.00 0.00 0.00
0.00 0.00 0.00 0.00 0.00 0.01 0.01 0.02 0.02 0.03 0.02 0.02 0.02 0.01 0.01 0.01 0.00 0.00 0.00 0.01 0.02 0.04 0.05 0.05 0.06 0.08 0.11 0.13 0.10 0.06 0.05 0.04 0.03 0.02 0.01 0.01 0.01 0.01 0.00 0.00 0.00 0.00 0.00
0.01 0.01 0.00 0.00 0.00 0.00 0.01 0.01 0.02 0.02 0.02 0.02 0.03 0.02 0.02 0.01 0.01 0.00 0.00 0.01 0.02 0.03 0.03 0.04 0.05 0.06 0.07 0.07 0.09 0.09 0.06 0.05 0.04 0.02 0.01 0.02 0.02 0.01 0.00 0.00 0.00 0.00 0.00
0.01 0.01 0.01 0.01 0.00 0.00 0.01 0.01 0.02 0.02 0.02 0.02 0.03 0.03 0.03 0.02 0.01 0.00 0.00 0.00 0.01 0.02 0.03 0.03 0.04 0.04 0.06 0.06 0.07 0.07 0.07 0.05 0.04 0.04 0.03 0.03 0.02 0.01 0.00 0.00 0.00 0.00 0.00
0.01 0.01 0.01 0.01 0.01 0.00 0.00 0.01 0.02 0.02 0.03 0.03 0.04 0.04 0.03 0.02 0.01 0.01 0.00 0.00 0.01 0.02 0.02 0.02 0.04 0.05 0.07 0.07 0.06 0.05 0.05 0.05 0.04 0.04 0.03 0.02 0.01 0.01 0.00 0.00 0.00 0.00 0.00
0.01 0.01 0.01 0.01 0.01 0.00 0.01 0.01 0.02 0.02 0.04 0.05 0.05 0.05 0.03 0.02 0.02 0.01 0.01 0.01 0.01 0.02 0.03 0.04 0.05 0.07 0.11 0.11 0.08 0.05 0.04 0.04 0.05 0.05 0.03 0.01 0.00 0.00 0.00 0.00 0.00 0.00 0.00
0.01 0.01 0.00 0.01 0.01 0.01 0.01 0.01 0.02 0.03 0.06 0.08 0.08 0.07 0.06 0.04 0.03 0.02 0.01 0.01 0.02 0.02 0.03 0.04 0.05 0.06 0.07 0.08 0.08 0.04 0.03 0.02 0.02 0.03 0.02 0.00 0.00 0.00 0.00 0.00 0.00 0.00 0.00
MSLP
1012.14 1012.15 1012.05 1011.89 1011.75 1011.66 1011.66 1011.73 1011.86 1012.00 1012.11 1012.16 1012.14 1012.05 1011.92 1011.79 1011.69 1011.65 1011.69 1011.79 1011.96 1012.17 1012.41 1012.65 1012.89 1013.11 1013.31 1013.50 1013.67 1013.83 1014.00 1014.18 1014.39 1014.63 1014.93 1015.26 1015.63 1016.03 1016.42 1016.79 1017.12 1017.40 1017.66
1011.71 1011.82 1011.80 1011.72 1011.63 1011.58 1011.58 1011.64 1011.74 1011.83 1011.89 1011.89 1011.82 1011.68 1011.51 1011.34 1011.21 1011.15 1011.17 1011.29 1011.50 1011.76 1012.07 1012.39 1012.70 1012.97 1013.20 1013.37 1013.50 1013.60 1013.69 1013.78 1013.92 1014.11 1014.37 1014.69 1015.07 1015.48 1015.89 1016.28 1016.63 1016.94 1017.21
1011.25 1011.45 1011.54 1011.57 1011.56 1011.57 1011.60 1011.66 1011.74 1011.79 1011.80 1011.75 1011.62 1011.44 1011.22 1011.00 1010.82 1010.72 1010.72 1010.83 1011.04 1011.33 1011.68 1012.05 1012.41 1012.72 1012.97 1013.14 1013.25 1013.30 1013.32 1013.35 1013.42 1013.55 1013.77 1014.08 1014.45 1014.86 1015.28 1015.68 1016.05 1016.38 1016.67
1010.80 1011.09 1011.29 1011.43 1011.52 1011.61 1011.69 1011.77 1011.84 1011.86 1011.83 1011.73 1011.55 1011.32 1011.05 1010.78 1010.55 1010.40 1010.35 1010.42 1010.60 1010.88 1011.22 1011.61 1011.98 1012.31 1012.57 1012.74 1012.83 1012.86 1012.84 1012.83 1012.86 1012.96 1013.15 1013.43 1013.78 1014.18 1014.60 1015.01 1015.39 1015.74 1016.06
1010.40 1010.76 1011.05 1011.29 1011.50 1011.67 1011.81 1011.92 1011.99 1012.00 1011.93 1011.80 1011.58 1011.31 1011.00 1010.69 1010.41 1010.20 1010.09 1010.08 1010.20 1010.41 1010.71 1011.05 1011.40 1011.72 1011.97 1012.14 1012.24 1012.26 1012.24 1012.23 1012.25 1012.33 1012.51 1012.77 1013.10 1013.49 1013.90 1014.30 1014.68 1015.04 1015.39
1010.09 1010.47 1010.83 1011.16 1011.45 1011.70 1011.90 1012.04 1012.12 1012.13 1012.05 1011.90 1011.67 1011.39 1011.06 1010.72 1010.41 1010.14 1009.95 1009.86 1009.87 1009.98 1010.18 1010.43 1010.71 1010.98 1011.21 1011.38 1011.49 1011.53 1011.55 1011.56 1011.60 1011.71 1011.89 1012.14 1012.46 1012.82 1013.21 1013.59 1013.96 1014.32 1014.68
1009.86 1010.23 1010.62 1011.00 1011.35 1011.66 1011.91 1012.08 1012.18 1012.20 1012.13 1011.98 1011.77 1011.50 1011.18 1010.85 1010.51 1010.20 1009.94 1009.75 1009.64 1009.63 1009.69 1009.83 1010.00 1010.20 1010.38 1010.54 1010.66 1010.74 1010.81 1010.87 1010.97 1011.11 1011.32 1011.57 1011.88 1012.21 1012.56 1012.90 1013.25 1013.59 1013.94
1009.71 1010.04 1010.41 1010.81 1011.19 1011.52 1011.80 1012.00 1012.12 1012.15 1012.11 1012.00 1011.82 1011.60 1011.33 1011.02 1010.70 1010.37 1010.05 1009.78 1009.55 1009.40 1009.32 1009.32 1009.37 1009.47 1009.59 1009.73 1009.86 1009.98 1010.11 1010.24 1010.40 1010.60 1010.83 1011.09 1011.38 1011.68 1011.98 1012.27 1012.56 1012.86 1013.18
1009.63 1009.89 1010.21 1010.58 1010.95 1011.29 1011.57 1011.78 1011.92 1011.98 1011.97 1011.91 1011.80 1011.64 1011.44 1011.20 1010.91 1010.59 1010.26 1009.92 1009.60 1009.33 1009.11 1008.97 1008.90 1008.90 1008.95 1009.05 1009.19 1009.35 1009.53 1009.73 1009.95 1010.19 1010.45 1010.72 1010.98 1011.23 1011.46 1011.68 1011.90 1012.14 1012.42
1009.62 1009.78 1010.04 1010.35 1010.68 1010.99 1011.25 1011.45 1011.59 1011.67 1011.70 1011.70 1011.66 1011.59 1011.47 1011.31 1011.09 1010.81 1010.48 1010.12 1009.74 1009.38 1009.06 1008.81 1008.64 1008.55 1008.54 1008.61 1008.74 1008.92 1009.13 1009.38 1009.65 1009.92 1010.19 1010.44 1010.67 1010.86 1011.02 1011.15 1011.29 1011.45 1011.65
1009.66 1009.74 1009.91 1010.14 1010.41 1010.66 1010.88 1011.05 1011.18 1011.27 1011.33 1011.38 1011.41 1011.42 1011.39 1011.31 1011.17 1010.95 1010.65 1010.30 1009.91 1009.51 1009.14 1008.82 1008.58 1008.43 1008.38 1008.42 1008.53 1008.72 1008.95 1009.22 1009.50 1009.78 1010.04 1010.26 1010.43 1010.55 1010.63 1010.67 1010.71 1010.78 1010.90
1009.78 1009.77 1009.85 1010.00 1010.18 1010.36 1010.51 1010.64 1010.73 1010.81 1010.89 1010.96 1011.04 1011.11 1011.15 1011.15 1011.08 1010.92 1010.68 1010.37 1010.01 1009.63 1009.26 1008.93 1008.68 1008.52 1008.45 1008.47 1008.58 1008.75 1008.98 1009.24 1009.51 1009.77 1009.99 1010.16 1010.27 1010.32 1010.31 1010.26 1010.20 1010.17 1010.20
1009.98 1009.90 1009.90 1009.95 1010.03 1010.12 1010.19 1010.25 1010.30 1010.35 1010.41 1010.49 1010.58 1010.68 1010.75 1010.79 1010.78 1010.68 1010.50 1010.26 1009.97 1009.65 1009.34 1009.07 1008.86 1008.72 1008.67 1008.71 1008.81 1008.98 1009.19 1009.42 1009.65 1009.87 1010.04 1010.15 1010.19 1010.16 1010.07 1009.93 1009.78 1009.66 1009.59
1010.25 1010.11 1010.03 1009.99 1009.98 1009.97 1009.95 1009.93 1009.92 1009.91 1009.93 1009.98 1010.05 1010.13 1010.20 1010.25 1010.26 1010.21 1010.09 1009.93 1009.73 1009.51 1009.31 1009.14 1009.03 1008.97 1008.98 1009.05 1009.17 1009.33 1009.52 1009.72 1009.91 1010.07 1010.18 1010.23 1010.21 1010.11 1009.95 1009.74 1009.51 1009.30 1009.15
1010.55 1010.37 1010.22 1010.10 1010.00 1009.89 1009.79 1009.68 1009.59 1009.52 1009.47 1009.46 1009.47 1009.50 1009.54 1009.56 1009.56 1009.52 1009.46 1009.37 1009.27 1009.19 1009.12 1009.10 1009.12 1009.18 1009.28 1009.42 1009.58 1009.75 1009.93 1010.09 1010.24 1010.35 1010.41 1010.41 1010.33 1010.18 1009.97 1009.70 1009.41 1009.14 1008.91
1010.82 1010.61 1010.41 1010.23 1010.04 1009.85 1009.66 1009.48 1009.31 1009.17 1009.05 1008.96 1008.89 1008.84 1008.81 1008.77 1008.73 1008.69 1008.66 1008.63 1008.64 1008.68 1008.77 1008.91 1009.09 1009.29 1009.52 1009.74 1009.97 1010.17 1010.35 1010.50 1010.62 1010.69 1010.72 1010.68 1010.58 1010.40 1010.16 1009.86 1009.53 1009.21 1008.93
1010.97 1010.75 1010.52 1010.29 1010.04 1009.79 1009.54 1009.29 1009.06 1008.84 1008.65 1008.49 1008.34 1008.20 1008.08 1007.97 1007.88 1007.81 1007.78 1007.81 1007.90 1008.06 1008.30 1008.59 1008.92 1009.28 1009.64 1009.97 1010.27 1010.52 1010.73 1010.89 1011.01 1011.08 1011.09 1011.05 1010.94 1010.77 1010.52 1010.22 1009.88 1009.53 1009.22
1010.93 1010.71 1010.47 1010.21 1009.93 1009.65 1009.35 1009.07 1008.79 1008.53 1008.28 1008.05 1007.83 1007.61 1007.41 1007.23 1007.07 1006.97 1006.94 1006.99 1007.14 1007.40 1007.75 1008.18 1008.66 1009.15 1009.63 1010.07 1010.45 1010.78 1011.03 1011.23 1011.37 1011.46 1011.50 1011.49 1011.41 1011.25 1011.03 1010.75 1010.42 1010.08 1009.75
1010.64 1010.44 1010.21 1009.95 1009.67 1009.37 1009.07 1008.76 1008.47 1008.19 1007.91 1007.64 1007.36 1007.09 1006.83 1006.58 1006.38 1006.24 1006.20 1006.27 1006.46 1006.78 1007.21 1007.74 1008.32 1008.92 1009.50 1010.04 1010.50 1010.90 1011.22 1011.48 1011.67 1011.82 1011.91 1011.95 1011.92 1011.82 1011.65 1011.41 1011.12 1010.79 1010.47
1010.08 1009.93 1009.73 1009.49 1009.22 1008.94 1008.65 1008.36 1008.08 1007.79 1007.51 1007.23 1006.93 1006.64 1006.34 1006.06 1005.83 1005.67 1005.62 1005.68 1005.90 1006.25 1006.73 1007.31 1007.96 1008.63 1009.28 1009.89 1010.43 1010.89 1011.29 1011.61 1011.88 1012.10 1012.27 1012.38 1012.44 1012.42 1012.32 1012.14 1011.90 1011.61 1011.32
1009.29 1009.18 1009.03 1008.84 1008.61 1008.37 1008.11 1007.85 1007.59 1007.33 1007.07 1006.80 1006.52 1006.22 1005.93 1005.65 1005.41 1005.25 1005.19 1005.27 1005.48 1005.84 1006.34 1006.94 1007.61 1008.31 1009.00 1009.65 1010.24 1010.76 1011.22 1011.63 1011.98 1012.28 1012.54 1012.76 1012.90 1012.98 1012.96 1012.87 1012.69 1012.47 1012.22
1008.33 1008.27 1008.18 1008.04 1007.87 1007.67 1007.46 1007.24 1007.02 1006.80 1006.57 1006.33 1006.08 1005.82 1005.56 1005.31 1005.10 1004.96 1004.91 1004.99 1005.21 1005.57 1006.06 1006.64 1007.31 1008.00 1008.70 1009.36 1009.98 1010.55 1011.06 1011.53 1011.96 1012.36 1012.72 1013.03 1013.28 1013.45 1013.54 1013.53 1013.44 1013.29 1013.11
1007.28 1007.28 1007.24 1007.17 1007.05 1006.91 1006.74 1006.57 1006.38 1006.20 1006.01 1005.82 1005.61 1005.40 1005.19 1004.99 1004.83 1004.74 1004.73 1004.83 1005.06 1005.41 1005.88 1006.44 1007.08 1007.75 1008.42 1009.08 1009.71 1010.30 1010.85 1011.37 1011.87 1012.34 1012.79 1013.19 1013.54 1013.82 1014.01 1014.10 1014.10 1014.03 1013.92
1006.23 1006.28 1006.30 1006.28 1006.21 1006.12 1005.99 1005.86 1005.71 1005.56 1005.41 1005.25 1005.10 1004.95 1004.81 1004.68 1004.59 1004.56 1004.60 1004.74 1004.99 1005.35 1005.80 1006.34 1006.94 1007.58 1008.22 1008.86 1009.47 1010.06 1010.63 1011.18 1011.72 1012.25 1012.76 1013.25 1013.68 1014.05 1014.34 1014.53 1014.64 1014.66 1014.63
1005.23 1005.32 1005.39 1005.42 1005.40 1005.34 1005.25 1005.14 1005.02 1004.90 1004.78 1004.67 1004.57 1004.48 1004.41 1004.36 1004.35 1004.39 1004.51 1004.70 1004.99 1005.36 1005.82 1006.35 1006.92 1007.53 1008.14 1008.74 1009.33 1009.90 1010.46 1011.02 1011.58 1012.13 1012.69 1013.22 1013.72 1014.17 1014.54 1014.83 1015.03 1015.15 1015.21
1004.30 1004.43 1004.54 1004.60 1004.63 1004.60 1004.54 1004.46 1004.36 1004.26 1004.17 1004.10 1004.04 1004.01 1004.01 1004.04 1004.11 1004.24 1004.43 1004.70 1005.03 1005.44 1005.92 1006.45 1007.02 1007.60 1008.18 1008.75 1009.31 1009.86 1010.39 1010.93 1011.47 1012.02 1012.59 1013.14 1013.68 1014.18 1014.62 1015.00 1015.29 1015.50 1015.65
Thickness
5763 5762 5760 5759 5759 5758 5756 5755 5754 5752 5750 5749 5748 5747 5745 5744 5743 5743 5743 5744 5744 5744 5742 5741 5742 5743 5743 5744 5743 5742 5742 5741 5741 5740 5739 5738 5738 5736 5735 5734 5733 5731 5729
5761 5758 5756 5755 5755 5754 5753 5752 5751 5749 5747 5747 5746 5745 5744 5742 5741 5741 5741 5740 5740 5741 5741 5740 5737 5738 5740 5741 5741 5741 5740 5740 5740 5739 5739 5739 5738 5737 5736 5735 5734 5732 5730
5758 5755 5752 5751 5750 5750 5749 5748 5747 5746 5744 5744 5743 5743 5741 5741 5740 5740 5739 5738 5737 5736 5736 5736 5735 5735 5736 5738 5739 5739 5739 5739 5738 5738 5738 5738 5737 5737 5737 5736 5735 5733 5731
5754 5751 5747 5746 5745 5745 5744 5743 5742 5740 5739 5739 5739 5739 5739 5738 5738 5738 5736 5736 5735 5734 5733 5733 5733 5734 5734 5735 5735 5736 5736 5736 5736 5736 5737 5737 5737 5736 5736 5736 5735 5734 5732
5748 5745 5743 5741 5741 5740 5739 5739 5737 5736 5735 5735 5736 5737 5736 5736 5736 5736 5734 5734 5733 5732 5731 5730 5731 5732 5732 5731 5731 5733 5733 5733 5733 5734 5734 5735 5736 5735 5735 5735 5735 5734 5733
5741 5739 5737 5737 5736 5734 5734 5734 5733 5734 5733 5733 5734 5734 5734 5735 5735 5734 5733 5732 5731 5730 5729 5728 5728 5728 5728 5728 5728 5729 5730 5730 5731 5731 5731 5733 5734 5734 5734 5734 5734 5734 5733
5735 5733 5732 5732 5731 5729 5729 5730 5729 5729 5729 5730 5728 5727 5730 5733 5732 5732 5731 5729 5728 5728 5726 5725 5725 5725 5726 5726 5726 5726 5726 5726 5727 5728 5729 5730 5731 5732 5733 5733 5733 5733 5733
5730 5729 5727 5726 5725 5724 5724 5724 5724 5723 5723 5725 5721 5718 5716 5719 5725 5729 5727 5726 5725 5724 5723 5723 5723 5723 5723 5723 5723 5724 5724 5724 5724 5724 5725 5727 5728 5730 5731 5732 5732 5733 5732
5725 5724 5723 5721 5720 5720 5718 5718 5719 5718 5716 5718 5718 5714 5709 5706 5711 5717 5720 5721 5720 5719 5719 5720 5721 5722 5722 5722 5722 5721 5721 5722 5721 5721 5722 5724 5725 5727 5728 5730 5731 5731 5731
5719 5719 5718 5717 5716 5715 5714 5714 5714 5714 5713 5711 5712 5713 5710 5708 5705 5705 5709 5713 5714 5714 5715 5717 5719 5720 5721 5721 5719 5719 5719 5719 5718 5718 5719 5720 5721 5723 5725 5727 5729 5730 5730
5711 5712 5712 5711 5710 5709 5709 5708 5708 5709 5708 5707 5706 5706 5706 5705 5705 5701 5700 5703 5706 5709 5711 5713 5715 5717 5718 5718 5717 5716 5716 5715 5714 5714 5715 5716 5717 5719 5721 5724 5726 5728 5729
5701 5703 5703 5703 5703 5702 5702 5702 5702 5703 5703 5703 5703 5703 5701 5699 5699 5699 5698 5697 5698 5702 5707 5709 5711 5713 5714 5714 5713 5713 5712 5710 5709 5710 5711 5712 5712 5714 5716 5720 5723 5725 5727
5689 5690 5693 5693 5694 5695 5695 5696 5696 5696 5697 5698 5698 5699 5699 5699 5699 5698 5696 5695 5695 5697 5700 5703 5706 5707 5708 5708 5708 5708 5707 5705 5705 5705 5706 5707 5707 5709 5711 5715 5718 5721 5724
5676 5678 5680 5682 5684 5685 5687 5688 5688 5689 5691 5692 5694 5695 5696 5696 5697 5696 5695 5693 5691 5691 5693 5695 5699 5701 5701 5701 5701 5701 5700 5699 5699 5699 5699 5700 5701 5702 5705 5708 5712 5716 5719
5662 5664 5666 5669 5672 5674 5676 5678 5680 5682 5684 5686 5687 5689 5691 5693 5694 5694 5694 5692 5688 5686 5685 5690 5692 5694 5694 5693 5692 5692 5692 5692 5691 5692 5692 5692 5693 5695 5698 5702 5706 5709 5713
5644 5647 5650 5653 5656 5660 5664 5667 5670 5673 5676 5678 5680 5683 5686 5688 5689 5690 5691 5691 5690 5686 5684 5685 5687 5687 5686 5685 5682 5682 5683 5683 5683 5683 5684 5685 5685 5687 5690 5694 5697 5701 5705
5626 5630 5633 5636 5640 5644 5649 5653 5658 5663 5665 5669 5672 5675 5679 5682 5684 5686 5687 5687 5687 5686 5683 5682 5682 5681 5679 5677 5674 5673 5673 5673 5673 5674 5675 5676 5677 5679 5682 5685 5688 5692 5695
5608 5611 5614 5618 5622 5628 5633 5638 5643 5650 5654 5658 5663 5667 5671 5675 5678 5680 5682 5683 5683 5684 5682 5679 5677 5676 5673 5670 5667 5665 5664 5663 5663 5663 5664 5666 5668 5670 5672 5675 5678 5681 5684
5587 5591 5594 5599 5604 5610 5616 5623 5629 5636 5642 5648 5654 5658 5663 5667 5670 5673 5676 5678 5680 5681 5680 5678 5675 5672 5668 5664 5660 5657 5655 5654 5654 5653 5654 5655 5657 5660 5662 5664 5666 5669 5672
5566 5570 5575 5580 5585 5591 5598 5606 5613 5621 5629 5636 5643 5649 5654 5659 5663 5667 5670 5673 5675 5676 5676 5675 5671 5668 5663 5659 5656 5651 5647 5646 5646 5645 5645 5645 5647 5649 5651 5653 5655 5658 5660
5548 5552 5556 5560 5566 5572 5581 5589 5596 5605 5613 5622 5630 5638 5645 5651 5657 5661 5665 5668 5670 5671 5671 5671 5668 5664 5660 5655 5651 5647 5642 5639 5637 5636 5636 5636 5637 5639 5640 5642 5644 5647 5649
5536 5537 5540 5544 5548 5556 5564 5571 5578 5587 5597 5606 5615 5625 5633 5641 5648 5654 5659 5662 5666 5667 5668 5668 5666 5662 5658 5653 5648 5643 5639 5635 5630 5628 5629 5626 5628 5628 5630 5632 5634 5636 5638
5531 5530 5531 5532 5536 5540 5547 5554 5561 5570 5579 5590 5600 5610 5620 5630 5636 5643 5649 5655 5659 5663 5666 5666 5664 5660 5656 5652 5646 5639 5635 5632 5630 5625 5622 5618 5618 5619 5620 5621 5624 5626 5628
5528 5527 5527 5527 5528 5532 5536 5540 5546 5553 5562 5573 5584 5596 5606 5616 5625 5632 5639 5644 5649 5654 5658 5660 5660 5658 5654 5649 5644 5639 5633 5627 5622 5618 5618 5612 5610 5610 5611 5612 5614 5617 5619
5525 5525 5525 5525 5525 5527 5530 5532 5536 5540 5547 5558 5569 5581 5593 5604 5614 5621 5629 5634 5639 5644 5649 5652 5653 5650 5647 5643 5639 5632 5626 5622 5614 5610 5610 5608 5604 5602 5602 5603 5605 5608 5610
5522 5522 5523 5522 5522 5523 5525 5527 5529 5531 5537 5546 5556 5568 5580 5591 5601 5609 5618 5625 5629 5634 5638 5640 5640 5639 5637 5634 5631 5629 5625 5619 5613 5606 5605 5604 5600 5598 5594 5595 5597 5599 5602